Flag for Norway Weather past 2 weeks in Stange, Norway

Now
21 °F

Cold.


Feels Like: 21 °F
Forecast: 31 / 61 °F
Wind: 1 mph from Southeast

Location: Haugedalshogda


UV Index: 0 (Low)

Visibility: N/A


Pressure: 30.28 "Hg

Humidity: 95%

Dew point: 20 °F

Location of StangeLocation

Historic Weather in Stange

°F

Stange temperature yesterday

Maximum temperature yesterday: 50 °F (at 6:00 PM)
Minimum temperature yesterday: 27 °F (at 10:00 PM)
Average temperature yesterday: 41 °F

Past Weeks' High & Low Weather Summary

 TemperatureHumidityPressure
High53 °F (Apr 13, 1:00 PM)98% (Apr 14, 4:00 AM)30.36 "Hg (Apr 14, 4:00 AM)
Low16 °F (Apr 4, 7:00 AM)28% (Apr 15, 6:00 PM)29.23 "Hg (Apr 13, 9:00 AM)
Average38 °F74%29.86 "Hg
* Reported Midnight between Apr 3 and Apr 4 — Midnight between Apr 18 and Apr 19, Stange, Weather by CustomWeather, © 2014

Note: Actual official high and low records may vary slightly from our data, if they occured in-between our weather recording intervals... More about our weather records

Advertising

Historic Weather Conditions — Data for Previous 24 hours

 ConditionsComfort  
Time TempWeatherWind HumidityBarometerVisibility
12:00 AM
Apr 19
23 °FCold.1 mph96%30.27 "HgN/A
10:00 PM
Apr 18
27 °FChilly.1 mph92%30.23 "HgN/A
9:00 PM33 °FChilly.No wind77%30.19 "HgN/A
8:00 PM45 °FQuite cool.No wind49%30.14 "HgN/A
7:00 PM49 °FCool.1 mph32%30.12 "HgN/A
6:00 PM50 °FCool.1 mph31%30.10 "HgN/A
5:00 PM49 °FCool.1 mph32%30.08 "HgN/A
4:00 PM48 °FCool.3 mph33%30.08 "HgN/A
3:00 PM48 °FCool.3 mph31%30.05 "HgN/A
2:00 PM47 °FCool.6 mph33%30.03 "HgN/A
1:00 PM46 °FCool.8 mph37%30.02 "HgN/A
12:00 PM44 °FQuite cool.8 mph38%29.99 "HgN/A
11:00 AM43 °FQuite cool.8 mph47%29.96 "HgN/A
10:00 AM41 °FQuite cool.12 mph51%29.92 "HgN/A
9:00 AM39 °FChilly.9 mph56%29.89 "HgN/A
8:00 AM37 °FChilly.10 mph57%29.86 "HgN/A
7:00 AM37 °FChilly.13 mph66%29.80 "HgN/A
6:00 AM37 °FChilly.8 mph69%29.76 "HgN/A
5:00 AM37 °FChilly.9 mph72%29.70 "HgN/A
4:00 AM37 °FChilly.10 mph75%29.66 "HgN/A
3:00 AM38 °FChilly.12 mph76%29.62 "HgN/A
2:00 AM38 °FChilly.8 mph83%29.58 "HgN/A
Weather by CustomWeather, © 2014

See weather overview